Wetbulb
49.68 46.04 43.91 46.03 46.97 46.41 43.82 43.22 42.89 45.51 47.68 46.66 46.68 47.35 49.08 51.36 51.60 51.53 52.29 53.20 53.95 54.91 56.94 58.21 59.74 61.88 63.09 65.19 67.44 70.55 72.28 74.91 75.09 74.04 73.28 73.01 72.07 72.82 72.72 72.79 73.44 73.54 73.53 73.10
46.15 43.13 46.89 46.35 45.51 44.77 44.10 43.01 43.61 45.83 47.33 46.38 46.60 46.28 49.09 50.41 51.00 52.00 52.21 52.53 53.44 54.61 56.06 57.39 58.71 60.26 61.92 64.20 66.01 67.60 70.11 73.12 74.75 74.40 74.30 74.03 73.42 73.36 73.10 72.67 73.17 73.01 72.95 74.66
43.91 45.15 46.74 45.44 44.12 43.32 44.23 43.42 43.45 43.39 46.00 47.31 46.08 44.69 46.82 49.56 50.82 51.49 52.28 53.35 53.92 54.26 54.82 56.21 56.71 58.70 61.07 62.20 64.24 66.06 68.40 70.20 72.91 74.78 74.51 73.97 74.05 74.10 72.93 72.70 71.91 72.63 72.87 72.61
45.14 47.58 44.82 44.47 43.55 45.29 42.09 46.37 45.03 44.22 43.42 40.29 46.19 38.82 45.55 47.93 48.83 50.28 51.59 52.58 53.20 54.42 55.13 55.95 57.23 58.11 60.04 60.97 63.14 64.93 66.73 68.64 70.48 73.48 74.09 75.21 72.43 71.57 72.64 73.55 73.14 73.28 73.34 72.59
43.51 44.35 44.06 43.35 44.43 46.59 44.14 46.15 45.06 44.69 43.54 43.28 43.27 40.72 44.47 48.11 46.19 48.58 50.93 52.34 53.81 54.78 55.22 55.43 56.83 58.45 59.77 60.84 61.72 63.34 65.87 67.19 68.71 71.78 73.50 73.40 73.38 72.25 72.95 72.63 74.99 75.31 74.82 73.56
46.34 48.59 46.49 46.22 46.79 46.57 46.85 45.12 45.83 45.86 44.02 38.25 42.79 42.01 42.30 45.33 47.41 49.28 51.47 52.24 53.11 53.60 55.30 56.77 57.97 58.88 59.34 60.43 61.43 62.94 64.28 65.70 67.50 68.22 69.96 71.94 73.84 73.48 71.67 73.03 72.46 72.75 73.26 73.50
45.34 45.99 48.45 48.43 45.53 47.83 46.53 44.08 38.32 37.71 38.30 37.19 45.18 42.59 44.62 48.85 49.59 50.22 50.65 51.75 53.57 54.97 55.70 56.32 57.15 58.20 59.85 60.87 62.02 62.62 62.85 63.62 65.86 66.68 67.45 68.97 71.58 73.96 74.04 73.29 71.72 72.48 70.96 71.15
40.50 38.22 46.14 48.39 46.35 45.01 46.03 45.20 39.41 33.13 35.98 39.55 43.16 38.92 44.38 48.85 50.40 51.53 51.64 53.14 53.56 54.26 55.69 56.04 56.94 57.88 58.41 59.56 61.34 62.07 62.60 62.94 63.83 64.90 66.21 67.46 68.67 69.78 71.62 72.01 71.16 70.71 69.96 70.43
41.02 40.49 45.96 46.57 47.98 47.30 44.99 41.82 46.78 41.25 42.45 38.64 41.46 44.83 48.34 49.83 49.69 50.30 50.86 51.86 52.46 53.70 54.88 55.50 56.77 57.55 58.28 59.27 60.39 61.33 62.08 63.02 63.76 63.90 64.96 66.28 67.66 69.09 70.18 70.82 70.31 69.28 70.99 68.56
44.24 38.88 45.80 46.23 47.36 48.00 45.64 47.93 40.87 41.82 33.02 32.25 38.46 40.58 41.69 45.62 47.41 49.91 50.20 50.92 52.24 53.37 53.80 55.16 56.24 57.22 58.07 59.10 60.24 60.46 61.36 62.28 63.39 63.62 64.22 64.86 66.64 67.57 67.86 67.58 67.55 67.65 67.36 65.99
45.11 41.43 42.12 46.30 43.07 41.83 43.46 42.76 43.69 43.52 41.28 34.86 33.68 38.84 48.00 47.22 48.29 48.36 50.43 51.28 51.71 52.40 52.94 54.41 55.29 56.42 57.56 58.37 58.95 59.55 60.07 60.76 62.02 63.03 63.53 64.08 64.83 65.03 64.99 64.70 64.63 65.21 66.76 65.64
44.81 41.74 38.03 41.75 47.28 47.18 45.08 42.75 42.61 36.98 36.75 39.80 37.72 38.80 49.98 49.83 49.75 49.33 49.47 50.26 51.45 52.21 53.10 54.45 55.30 55.77 56.35 57.36 58.11 58.51 60.41 59.30 59.57 60.38 61.97 61.66 62.93 62.83 63.29 63.08 63.79 65.14 65.31 64.93
44.39 39.51 35.16 38.17 43.01 45.72 42.92 44.15 43.59 43.43 41.79 38.13 35.07 38.73 48.56 48.88 48.75 49.63 48.55 49.24 50.92 51.92 53.04 53.83 54.52 54.66 54.79 55.57 56.41 56.59 57.33 57.34 59.52 59.31 59.17 59.11 59.36 60.74 61.91 62.94 63.55 64.14 64.24 64.75
43.13 41.07 37.97 33.56 37.46 40.38 38.73 40.89 42.75 40.59 36.07 38.06 37.38 40.84 43.91 47.29 46.46 47.51 48.16 50.26 51.09 51.31 51.89 52.69 53.31 54.21 54.26 54.48 54.11 54.80 55.54 56.01 56.08 56.26 55.73 57.09 58.39 59.32 60.11 61.36 62.24 63.74 63.78 63.74
41.14 36.32 38.49 38.93 39.36 39.74 38.83 38.91 40.04 38.23 39.12 34.61 39.51 40.69 44.02 45.44 46.20 47.43 49.34 50.31 49.66 49.77 49.43 50.16 50.86 52.54 52.67 52.62 53.06 53.59 53.72 53.73 55.25 54.89 54.67 52.01 53.73 57.25 58.59 59.17 59.57 60.34 60.87 61.93
41.98 36.16 38.31 35.80 38.76 38.35 36.33 38.74 39.55 39.79 40.06 40.68 40.89 39.76 46.25 47.51 48.45 48.09 48.46 46.95 48.45 49.28 49.86 50.55 51.31 51.59 51.42 51.80 51.88 52.15 52.22 52.37 53.77 53.59 53.91 53.84 52.01 52.62 54.80 56.15 58.14 59.33 59.55 60.44
38.74 37.82 35.25 32.16 36.40 36.63 33.23 38.36 39.56 40.59 42.00 41.17 37.74 42.88 47.18 46.28 45.86 46.72 48.18 48.58 48.16 48.66 49.47 49.99 51.08 51.64 51.97 51.83 52.10 51.43 52.05 52.83 52.37 52.22 52.82 53.29 53.11 52.49 52.15 53.41 54.89 56.03 57.35 60.16
39.16 38.08 36.67 32.46 35.09 26.31 39.09 43.92 43.10 41.15 42.08 44.14 44.34 45.30 44.89 44.76 47.24 48.40 48.93 48.31 47.81 48.52 49.28 49.83 50.69 50.99 51.64 52.32 52.09 51.86 51.81 51.92 51.62 51.27 51.78 52.24 52.37 52.47 52.51 53.12 54.51 57.20 57.69 57.69
43.16 38.51 34.30 31.60 31.24 36.25 39.00 41.05 40.96 40.00 40.23 44.55 44.18 45.24 45.63 46.15 46.79 46.37 49.21 49.10 48.52 48.78 48.81 48.62 48.60 49.22 49.77 50.39 50.98 50.30 50.53 51.05 50.94 50.61 51.15 51.80 52.22 52.08 52.53 51.92 52.84 55.38 55.30 57.04
41.99 40.56 36.46 34.20 29.46 27.41 38.35 43.09 45.31 44.56 36.91 45.11 43.92 43.80 44.14 44.91 39.48 43.53 48.50 48.56 48.63 49.44 49.16 47.64 49.93 49.46 48.95 49.51 49.73 48.85 49.63 49.42 48.96 49.51 49.89 51.13 52.00 51.72 51.45 51.98 52.31 53.31 53.93 54.29
35.42 35.66 33.56 33.66 32.27 36.29 42.48 43.68 45.22 32.93 37.08 44.98 45.43 45.03 44.52 42.55 44.47 46.77 47.89 48.05 48.90 47.95 48.05 46.96 46.63 45.20 47.27 47.69 47.53 45.14 46.13 46.13 48.51 49.51 50.03 50.01 51.25 51.19 51.58 51.75 51.59 51.70 51.87 52.66
35.37 33.90 33.10 34.91 31.27 29.11 44.10 43.03 37.78 43.40 46.09 45.73 45.41 45.62 44.77 45.68 45.90 45.90 46.04 45.86 47.10 46.98 46.65 47.41 44.05 44.50 46.08 46.26 45.20 44.61 44.70 46.93 47.70 47.10 47.20 47.75 48.60 48.83 49.12 50.01 50.75 50.73 50.66 50.29
35.18 39.11 37.48 38.34 38.60 43.58 46.69 44.83 47.17 46.63 44.55 44.55 44.44 45.27 45.07 44.25 41.67 42.23 44.42 45.96 45.67 45.74 46.37 46.13 43.57 42.83 43.59 44.54 43.38 42.09 43.55 44.53 44.58 43.69 43.63 44.53 44.89 45.79 46.51 46.78 46.72 46.96 48.48 47.95
40.72 43.39 40.12 39.11 41.91 43.74 45.01 45.90 46.11 46.37 44.97 45.37 45.51 45.10 45.00 43.15 43.69 44.39 44.95 45.07 44.67 45.43 44.56 45.54 43.91 41.91 42.00 42.06 42.78 43.01 43.34 44.04 42.51 42.14 42.34 43.44 44.22 44.01 45.24 45.59 45.60 45.26 44.84 45.83
40.97 41.90 40.22 40.65 42.96 44.01 44.28 45.49 45.91 45.86 45.86 45.20 45.43 44.97 44.27 42.46 42.37 44.70 44.33 43.80 44.02 43.73 43.39 43.07 41.39 42.82 40.74 40.49 41.60 43.02 42.47 42.21 40.93 41.55 42.16 42.85 43.21 43.53 43.17 43.62 44.04 44.98 47.41 46.91
43.19 40.94 38.31 38.03 43.02 43.02 43.83 46.36 47.05 44.74 44.11 44.04 43.82 43.20 43.32 44.55 43.13 43.23 43.16 43.50 41.32 41.31 41.18 41.64 40.74 38.88 39.54 40.37 39.54 41.25 41.47 41.71 40.75 40.23 40.87 41.22 41.09 41.59 42.24 42.99 43.86 41.68 41.01 41.11
MSLP
1006.60 1005.97 1005.10 1004.72 1004.88 1004.72 1004.92 1004.73 1004.25 1004.13 1004.42 1004.69 1004.14 1003.66 1003.52 1003.46 1003.47 1003.55 1003.34 1003.34 1003.57 1003.61 1003.76 1004.15 1004.36 1004.44 1004.35 1004.50 1004.75 1004.97 1005.32 1005.86 1006.36 1006.51 1006.60 1006.74 1006.64 1007.21 1007.53 1007.53 1007.88 1008.39 1008.85 1009.01
1006.24 1005.21 1004.74 1005.23 1005.60 1005.69 1005.42 1004.96 1004.43 1004.37 1004.50 1004.72 1003.85 1003.23 1002.98 1003.00 1002.98 1003.01 1003.06 1003.08 1003.23 1003.34 1003.44 1003.64 1003.95 1004.29 1004.48 1004.46 1004.60 1004.76 1005.11 1005.46 1005.71 1005.79 1005.94 1005.81 1006.04 1006.33 1006.71 1007.03 1007.30 1007.69 1007.92 1008.10
1004.88 1004.36 1005.02 1005.26 1005.42 1005.46 1005.14 1004.74 1004.38 1004.56 1004.20 1004.36 1003.88 1002.83 1002.46 1002.35 1002.51 1002.59 1002.79 1002.86 1002.94 1003.18 1003.24 1003.46 1003.70 1003.89 1004.09 1004.14 1004.20 1004.34 1004.61 1004.87 1005.15 1005.37 1005.48 1005.84 1005.98 1006.01 1005.86 1006.00 1006.45 1006.82 1007.38 1007.56
1004.82 1004.45 1004.96 1004.96 1004.80 1004.96 1004.23 1004.54 1004.77 1004.53 1004.26 1003.17 1003.20 1001.78 1001.37 1001.44 1001.87 1002.15 1002.14 1002.15 1002.33 1002.48 1002.76 1003.04 1003.34 1003.48 1003.66 1003.78 1004.05 1004.20 1004.30 1004.43 1004.60 1004.76 1004.68 1004.72 1004.79 1004.54 1004.64 1005.02 1005.10 1005.65 1006.53 1007.00
1004.00 1004.36 1004.48 1004.40 1004.25 1004.42 1004.21 1004.43 1004.66 1004.50 1004.12 1003.59 1002.90 1002.30 1000.85 1000.80 1001.40 1001.62 1001.66 1001.79 1001.99 1002.22 1002.50 1002.93 1003.16 1003.37 1003.62 1003.80 1003.80 1003.93 1004.05 1004.05 1004.20 1004.10 1004.26 1004.06 1004.30 1004.14 1004.19 1004.23 1004.42 1005.03 1005.54 1006.32
1004.42 1004.56 1004.50 1003.88 1003.97 1004.37 1004.48 1004.82 1004.58 1004.30 1003.89 1002.64 1001.98 1001.57 1000.14 1000.03 1000.40 1000.78 1001.14 1001.38 1001.77 1002.48 1003.04 1003.24 1003.32 1003.38 1003.27 1003.31 1003.45 1003.58 1003.80 1003.82 1003.80 1003.94 1003.77 1003.79 1003.60 1003.64 1003.22 1003.22 1003.62 1004.17 1004.74 1005.46
1004.31 1003.90 1003.86 1004.18 1004.00 1003.98 1004.44 1004.39 1003.43 1002.61 1001.93 1001.10 1000.84 1000.34 999.93 1000.06 1000.53 1001.07 1001.26 1001.92 1002.61 1003.12 1003.19 1003.48 1003.50 1003.48 1003.56 1003.49 1003.59 1003.71 1003.63 1003.59 1003.62 1003.52 1003.47 1003.43 1003.42 1003.35 1003.23 1003.36 1003.70 1003.79 1003.89 1004.36
1004.07 1003.50 1003.13 1003.38 1003.69 1003.12 1002.79 1003.17 1002.76 1001.74 1001.11 1000.15 1001.10 1000.22 1000.07 1001.07 1001.45 1001.66 1002.28 1002.99 1003.24 1003.44 1003.59 1003.70 1003.66 1003.76 1003.71 1003.62 1003.59 1003.56 1003.50 1003.38 1003.22 1003.13 1002.92 1002.93 1002.94 1002.89 1002.83 1003.15 1003.14 1003.32 1003.12 1003.68
1004.55 1004.14 1004.20 1004.11 1003.83 1003.77 1003.09 1003.08 1003.32 1002.98 1002.63 1001.66 1000.85 1000.25 1000.23 1000.63 1001.54 1002.10 1002.67 1003.14 1003.48 1003.82 1003.94 1003.76 1003.54 1003.59 1003.78 1003.84 1003.72 1003.67 1003.47 1003.26 1003.08 1002.80 1002.58 1002.56 1002.41 1002.47 1002.27 1003.16 1003.45 1003.19 1003.14 1003.43
1006.60 1005.99 1004.97 1004.84 1004.87 1004.14 1004.13 1003.86 1003.77 1003.58 1002.83 1001.67 1000.79 1000.22 999.94 1000.82 1001.56 1002.00 1002.88 1003.36 1003.86 1004.03 1003.80 1003.73 1003.63 1003.60 1003.58 1003.51 1003.62 1003.54 1003.33 1003.16 1002.98 1002.75 1002.48 1002.25 1002.24 1002.55 1002.74 1003.10 1002.89 1002.70 1003.15 1003.54
1008.84 1008.39 1006.57 1005.24 1004.97 1004.41 1004.58 1004.26 1004.16 1004.10 1003.56 1002.76 1001.97 1000.85 1001.23 1001.79 1002.36 1003.04 1003.60 1003.98 1004.30 1004.31 1004.24 1004.10 1003.87 1003.69 1003.46 1003.14 1002.98 1003.17 1003.23 1002.83 1002.84 1002.94 1002.68 1002.50 1002.18 1002.34 1002.52 1002.65 1002.67 1002.78 1003.16 1003.30
1009.37 1009.16 1007.15 1005.50 1004.66 1005.01 1005.48 1005.17 1005.17 1005.35 1004.95 1004.18 1003.77 1002.43 1002.00 1002.94 1003.41 1004.23 1004.36 1004.64 1004.90 1004.82 1004.50 1004.31 1004.20 1004.19 1003.90 1003.74 1003.56 1003.53 1003.39 1003.30 1003.11 1002.98 1002.90 1003.11 1002.86 1003.00 1002.88 1002.88 1002.99 1003.02 1003.34 1003.70
1010.72 1010.20 1008.20 1006.14 1005.50 1005.39 1005.35 1005.45 1005.60 1006.04 1006.68 1005.17 1004.50 1002.80 1003.21 1003.66 1003.65 1003.77 1004.40 1004.92 1005.26 1005.12 1004.81 1004.67 1004.60 1004.56 1004.61 1004.60 1004.38 1004.22 1004.16 1004.27 1004.05 1003.69 1003.27 1003.58 1003.39 1002.98 1002.94 1003.05 1003.35 1003.32 1003.25 1003.30
1012.52 1010.82 1009.34 1007.55 1006.59 1007.47 1006.66 1006.40 1006.37 1006.67 1006.45 1005.41 1004.17 1003.62 1003.36 1003.00 1003.20 1003.79 1004.55 1005.16 1005.33 1005.32 1004.98 1004.96 1004.98 1004.83 1004.93 1005.04 1005.13 1004.90 1004.61 1004.36 1004.21 1004.21 1004.34 1003.81 1003.82 1003.58 1003.23 1003.11 1003.22 1003.17 1003.27 1003.05
1012.78 1011.32 1009.84 1008.89 1008.19 1007.62 1007.26 1006.70 1006.30 1006.25 1006.42 1005.92 1004.83 1003.64 1003.33 1003.61 1003.90 1004.43 1005.20 1005.33 1005.51 1005.64 1005.65 1005.36 1005.36 1005.30 1005.35 1005.25 1005.22 1005.06 1005.07 1004.68 1004.33 1003.91 1003.84 1003.94 1003.64 1004.19 1003.78 1003.43 1003.38 1003.30 1003.28 1003.36
1011.98 1011.17 1010.14 1009.16 1008.37 1007.94 1006.98 1006.17 1005.65 1005.24 1004.96 1004.53 1004.27 1003.62 1003.70 1004.37 1004.92 1004.91 1005.09 1005.50 1005.40 1005.23 1005.14 1005.08 1005.19 1005.27 1005.43 1005.28 1005.32 1005.19 1005.08 1004.67 1004.42 1004.09 1003.76 1003.68 1004.07 1004.04 1003.53 1003.13 1003.41 1003.40 1003.95 1003.49
1011.63 1010.86 1010.27 1008.69 1008.14 1007.23 1006.05 1004.77 1004.50 1004.23 1004.19 1004.20 1003.86 1003.61 1004.04 1004.48 1004.84 1005.29 1005.09 1005.19 1005.13 1005.06 1004.92 1004.68 1004.82 1005.07 1005.13 1005.11 1005.14 1004.95 1004.71 1004.61 1004.21 1003.83 1003.51 1003.45 1003.39 1003.44 1003.09 1002.97 1002.68 1003.09 1003.04 1002.88
1010.90 1010.69 1010.30 1009.05 1008.09 1006.70 1005.25 1005.34 1005.09 1004.50 1004.32 1004.41 1004.52 1004.68 1005.01 1005.48 1005.57 1005.45 1005.46 1005.12 1004.96 1005.12 1004.98 1005.07 1004.92 1004.81 1004.81 1004.67 1004.69 1004.70 1004.44 1004.08 1003.83 1003.42 1003.09 1002.95 1002.72 1002.50 1002.64 1002.70 1002.58 1002.57 1002.73 1002.68
1009.67 1010.29 1010.24 1009.32 1007.80 1006.06 1004.99 1005.46 1005.44 1005.12 1004.58 1004.76 1005.17 1005.26 1005.60 1005.94 1005.51 1004.95 1004.38 1004.58 1005.10 1005.26 1005.26 1005.26 1005.37 1005.03 1004.64 1004.35 1004.16 1004.04 1003.68 1003.40 1003.06 1002.74 1002.46 1002.27 1002.06 1001.94 1001.91 1001.90 1002.16 1002.12 1002.12 1001.89
1009.49 1010.30 1010.47 1009.44 1008.19 1006.06 1005.75 1006.27 1006.53 1006.20 1005.21 1005.89 1006.46 1006.28 1006.09 1005.89 1005.01 1004.20 1004.68 1005.22 1005.08 1004.94 1004.88 1004.70 1004.31 1003.99 1003.79 1003.59 1003.42 1003.05 1002.55 1002.37 1002.16 1001.96 1001.83 1001.57 1001.36 1001.30 1001.26 1001.30 1001.24 1001.25 1001.01 1000.84
1009.87 1010.20 1009.80 1008.77 1007.91 1006.30 1006.48 1006.85 1006.84 1006.50 1007.00 1006.82 1006.76 1006.56 1006.34 1006.03 1005.68 1005.36 1005.36 1004.98 1004.74 1004.46 1004.04 1004.13 1004.20 1004.12 1003.68 1003.61 1003.28 1002.78 1002.44 1002.00 1001.78 1001.33 1001.02 1000.92 1000.62 1000.52 1000.50 1000.51 1000.73 1000.61 1000.48 1000.31
1009.11 1009.01 1008.65 1008.32 1007.65 1006.88 1007.14 1007.09 1006.85 1006.90 1006.95 1006.98 1006.80 1006.61 1006.31 1006.06 1005.67 1005.58 1005.56 1005.10 1004.24 1003.58 1003.20 1003.14 1003.36 1003.45 1003.24 1003.10 1002.62 1001.94 1001.57 1001.30 1001.04 1000.75 1000.51 1000.30 1000.18 1000.11 999.90 999.78 999.68 999.60 999.68 999.52
1008.22 1007.93 1007.65 1007.47 1006.83 1007.21 1007.14 1007.24 1007.28 1007.49 1007.34 1007.15 1006.96 1006.74 1006.62 1006.11 1006.02 1006.00 1005.07 1004.04 1003.28 1002.98 1002.58 1002.51 1002.55 1002.70 1002.76 1002.35 1001.92 1001.24 1000.73 1000.87 1000.54 1000.44 1000.13 1000.05 999.94 999.57 999.31 999.04 998.73 998.58 998.66 998.33
1007.68 1007.80 1007.30 1007.22 1006.95 1006.74 1006.87 1007.11 1007.39 1007.32 1007.24 1007.20 1007.13 1006.75 1006.41 1005.97 1005.78 1005.07 1004.19 1003.28 1002.76 1002.09 1001.74 1002.06 1001.88 1002.06 1001.45 1001.40 1001.06 1000.58 1000.32 1000.06 999.83 999.41 999.23 998.98 998.54 998.34 998.28 998.15 997.94 997.77 997.55 997.23
1007.71 1007.79 1007.08 1006.79 1006.50 1006.88 1006.72 1006.86 1007.01 1007.07 1007.15 1007.03 1006.87 1006.69 1006.33 1006.33 1005.61 1004.62 1003.53 1002.92 1002.27 1001.70 1001.97 1001.88 1001.67 1000.99 1000.40 1000.55 1000.12 999.82 999.49 999.25 998.82 998.46 998.16 997.79 997.62 997.39 997.21 996.96 996.77 996.43 996.12 995.85
1007.45 1007.76 1007.89 1007.76 1007.78 1007.60 1007.18 1007.10 1007.22 1007.18 1007.11 1007.10 1006.77 1006.24 1006.24 1005.71 1004.96 1004.28 1003.18 1002.25 1002.58 1002.30 1002.00 1001.32 1000.69 1000.51 999.94 999.25 999.07 998.71 998.60 998.36 998.06 997.51 997.17 996.91 996.62 996.18 995.84 995.62 995.34 995.26 995.28 995.26
Wind_Speed
12 11 12 14 12 9 5 7 8 7 5 9 13 13 11 11 10 12 12 10 9 10 8 4 4 8 10 9 10 12 13 14 12 12 13 13 14 13 14 14 15 15 15 15
8 14 11 3 5 10 10 11 12 9 9 7 13 15 13 11 12 14 11 11 12 11 10 9 7 7 8 9 9 12 14 13 13 11 11 11 11 12 13 13 13 16 16 15
15 1 5 12 12 12 13 12 8 10 6 10 14 17 17 14 15 12 13 14 10 10 9 9 8 7 8 9 10 9 11 14 14 15 10 10 10 10 11 12 13 16 19 18
11 13 9 10 15 13 13 11 11 12 11 10 2 11 12 8 11 13 14 12 11 10 8 8 9 11 12 11 10 11 10 11 14 16 14 15 14 14 14 13 13 13 18 17
2 6 13 16 15 14 13 2 10 11 13 15 16 12 12 13 9 15 13 13 11 10 9 9 11 9 9 10 11 11 12 11 13 14 17 14 17 13 13 11 13 13 12 16
16 3 5 9 7 8 4 8 14 13 13 16 18 18 11 10 11 11 10 8 7 6 8 10 12 13 12 11 10 11 11 14 13 13 17 19 18 17 16 14 13 12 12 12
16 18 18 10 14 14 13 12 10 13 14 13 14 14 10 11 8 10 9 7 7 7 8 8 9 10 9 10 10 9 11 13 13 14 16 18 20 19 18 14 13 13 12 12
13 14 18 11 17 17 17 17 13 16 13 13 6 8 6 1 6 9 3 3 4 7 8 9 9 8 11 11 12 12 11 12 13 14 16 16 18 15 14 15 13 13 11 11
9 13 1 6 8 8 12 11 16 21 21 19 19 22 17 13 9 8 5 4 7 9 9 11 10 9 8 10 10 12 12 12 13 14 14 14 15 17 13 15 14 11 10 9
4 13 13 9 8 13 13 14 10 11 15 22 15 16 10 7 9 10 7 3 8 11 14 13 13 11 11 9 9 10 9 11 11 12 11 11 12 14 11 14 15 12 10 11
10 7 11 13 11 14 10 14 18 16 15 14 14 10 8 3 3 5 9 11 13 13 15 14 13 13 13 13 12 8 8 7 6 7 7 9 10 11 10 11 12 12 10 12
4 7 13 19 13 7 11 15 16 10 11 13 11 10 12 1 0 1 10 12 16 17 16 14 13 11 11 11 10 9 7 6 6 6 3 5 6 6 7 7 8 10 11 10
2 6 8 10 16 17 17 16 17 13 7 15 14 8 7 3 9 11 12 15 12 12 12 10 9 9 8 9 9 9 7 8 10 9 7 10 9 6 6 7 10 8 9 9
1 10 12 13 12 4 7 7 8 8 5 14 15 19 16 16 13 13 12 11 12 13 13 10 9 9 7 8 8 11 10 8 8 8 9 7 8 10 9 9 8 10 12 12
5 8 14 16 17 18 17 19 19 20 16 17 16 22 18 16 15 11 9 11 12 10 11 10 10 9 10 11 11 11 11 10 10 10 10 7 8 12 10 9 7 8 8 12
11 6 9 12 11 12 19 21 21 22 21 22 20 21 16 6 6 9 10 9 13 13 13 13 13 12 12 12 13 13 13 13 12 11 10 8 3 7 12 11 12 10 11 15
4 7 4 10 7 10 13 16 16 17 15 13 15 10 11 12 10 11 13 14 16 17 18 16 12 13 14 15 14 15 14 13 13 13 12 12 9 9 7 10 10 10 13 11
15 14 9 8 9 10 5 2 4 7 5 7 10 12 6 10 12 15 16 19 12 17 15 16 16 18 19 17 16 16 16 15 15 15 14 14 14 13 12 11 11 12 9 11
17 14 5 5 7 13 9 3 5 6 8 2 8 11 10 12 17 20 16 13 15 18 18 17 18 18 18 19 19 19 19 17 16 16 16 16 16 16 15 15 15 12 13 15
9 6 5 6 5 5 4 6 2 4 10 6 3 8 14 17 15 13 18 19 19 18 17 18 20 20 21 21 21 20 20 18 19 18 18 18 18 18 17 17 16 15 15 16
6 5 10 10 5 5 5 2 2 5 4 5 12 15 16 16 15 21 20 21 21 20 21 20 20 20 22 20 21 19 18 20 21 21 20 19 19 19 18 18 17 16 17 17
5 6 5 6 5 6 4 2 5 11 12 13 16 16 18 20 22 22 23 23 24 23 23 22 17 17 20 22 20 19 22 19 18 19 20 19 19 17 17 21 20 20 18 19
4 4 3 5 3 2 1 6 9 9 12 15 17 18 19 21 21 22 24 25 23 25 24 21 18 18 19 22 18 20 17 18 19 18 17 18 19 18 15 16 16 14 16 17
3 3 5 5 5 1 5 4 6 10 14 16 16 19 20 21 22 25 24 23 24 24 20 20 20 22 20 16 17 18 18 20 18 16 16 15 16 16 15 12 13 13 14 14
8 5 7 10 6 8 3 8 13 16 16 17 18 19 20 20 22 25 24 26 24 21 19 21 16 20 23 18 18 19 18 16 16 16 16 16 13 14 14 15 14 14 15 13
4 7 4 1 6 9 13 16 17 16 17 19 20 21 19 22 23 25 23 22 20 23 18 17 23 19 21 21 18 18 17 15 16 16 13 11 11 12 12 11 12 17 21 19
Wind_Direction
204 224 217 214 220 310 292 267 258 253 245 252 253 253 253 254 224 238 241 250 261 266 271 245 279 315 313 289 263 242 230 224 214 210 211 211 213 213 219 217 214 213 213 208
197 230 244 237 229 225 225 240 246 261 256 269 261 261 254 255 246 245 261 264 259 261 255 254 261 287 289 299 284 262 247 234 219 220 225 228 221 220 222 218 214 218 216 213
246 84 308 202 206 220 224 243 247 260 275 260 265 266 253 240 242 253 253 258 261 251 255 270 285 296 281 281 290 284 263 240 230 230 221 228 244 237 225 218 212 212 214 214
257 250 214 211 225 218 247 202 252 260 265 269 47 282 273 252 239 245 248 247 245 261 262 252 255 280 282 285 286 289 281 260 237 225 225 217 219 225 220 224 217 210 213 220
169 201 214 226 228 223 255 304 261 268 266 271 256 248 264 242 230 245 249 248 260 265 263 302 297 297 293 296 285 283 284 270 250 239 233 226 224 228 233 228 224 212 199 214
267 154 260 240 227 232 193 235 246 250 254 253 250 250 262 255 216 233 241 253 253 298 299 297 303 301 291 291 293 294 277 280 271 247 236 235 237 228 237 215 217 213 214 207
240 240 240 228 249 218 222 250 253 244 226 245 248 252 272 289 261 271 292 334 333 313 298 324 324 325 321 313 320 311 294 279 272 264 248 240 239 237 234 224 219 211 205 209
271 254 235 215 233 255 243 233 254 272 274 279 145 235 247 60 313 301 329 303 333 343 348 330 321 326 323 324 322 322 313 296 286 268 257 249 244 238 230 222 223 224 214 207
273 243 24 247 261 240 250 226 256 280 268 268 271 273 259 225 238 231 266 303 348 344 331 323 323 324 333 332 328 322 320 313 297 281 266 255 243 235 218 229 218 214 215 197
310 284 262 268 280 256 256 289 259 222 258 258 250 245 260 184 243 185 233 325 325 328 325 328 322 322 315 304 304 344 320 318 316 295 275 252 238 231 215 209 207 198 191 204
325 271 259 244 225 249 235 243 236 265 272 271 271 272 44 300 323 330 317 329 319 319 314 315 319 320 320 311 312 325 343 328 331 321 298 266 235 215 210 206 197 186 184 184
253 290 264 259 265 227 246 265 269 246 255 260 275 263 308 248 153 267 313 315 312 311 301 302 308 318 325 331 329 336 326 344 26 14 300 265 266 255 235 220 212 195 194 193
18 229 265 242 229 237 250 252 240 255 248 239 252 246 146 216 241 304 316 312 310 314 299 312 307 312 338 334 341 343 356 346 329 325 27 8 358 320 283 235 232 209 203 205
222 254 256 274 301 303 284 280 269 267 256 265 254 267 279 279 306 308 320 309 311 318 317 307 307 313 327 329 335 325 335 347 357 344 317 334 344 344 347 316 278 257 230 209
214 259 265 269 275 277 275 269 261 244 248 253 276 279 290 305 311 330 304 301 317 311 304 288 294 310 317 323 323 320 317 329 331 332 341 344 339 311 313 318 314 286 274 256
190 258 262 264 255 260 260 258 258 257 257 254 263 276 285 4 295 295 310 298 294 296 297 288 293 293 305 311 312 313 311 314 316 307 304 308 254 273 301 312 299 291 262 252
239 247 256 271 267 290 264 258 250 254 251 259 261 288 348 306 318 294 307 308 302 304 301 302 309 300 296 304 302 299 299 297 294 295 291 286 270 274 261 274 288 282 288 278
249 252 254 276 296 250 63 41 334 312 259 256 268 272 324 315 312 306 301 288 296 304 311 302 296 297 299 299 297 295 289 282 284 284 282 277 275 268 255 254 254 247 239 250
231 233 244 242 229 279 261 198 278 303 287 304 313 315 332 311 296 288 287 329 319 307 304 302 299 286 290 292 291 289 282 277 276 275 275 272 268 266 263 255 246 250 253 248
197 207 210 203 245 271 87 111 1 304 268 69 327 308 302 308 292 300 334 316 302 297 297 285 286 296 293 294 293 289 275 275 276 276 278 274 265 264 260 259 261 260 255 254
160 178 215 226 259 271 84 106 291 252 42 323 307 307 301 296 297 307 305 300 299 294 298 308 302 295 291 302 294 275 275 271 276 276 274 270 264 260 261 260 258 255 255 257
193 192 191 226 242 244 120 215 268 352 321 315 308 306 304 300 301 308 307 295 289 290 294 299 301 289 291 297 280 277 275 277 275 281 281 276 271 268 263 253 246 241 242 246
254 268 304 236 8 134 329 312 320 312 305 311 307 310 306 302 303 292 289 296 294 299 293 298 291 294 290 287 282 280 285 290 277 277 264 261 262 257 255 253 257 259 255 258
221 269 261 283 88 300 295 317 280 303 308 312 305 303 302 303 305 298 296 295 296 291 299 307 296 281 285 290 286 280 280 275 280 272 269 256 252 259 253 251 250 245 240 236
289 302 289 277 344 315 172 307 333 319 316 310 309 307 307 302 293 295 302 301 297 305 306 303 283 289 289 287 275 273 275 273 270 267 263 263 260 254 251 241 240 240 245 245
299 322 313 346 320 331 319 325 326 318 318 319 311 312 306 301 305 297 291 304 320 307 300 295 299 286 288 287 291 282 283 274 271 266 262 259 259 255 253 253 251 240 240 242